1514113200.61,34297,9.25,73260.3,-2.51,-3.03,-2.99,0,*5F
1514113201.83,34298,9.25,73278.5,-2.51,-3.03,-2.99,0,*50
1514113203.05,34299,9.25,73278.8,-2.51,-3.03,-2.99,0,*51
1514113204.27,34300,9.25,73278.5,-2.51,-3.03,-2.99,0,*50
1514113205.47,34301,9.25,73276.3,-2.49,-2.99,-2.99,0,*5A
1514113206.66,34302,9.25,73266.0,-2.49,-3.03,-3.03,0,*59
1514113207.88,34303,9.25,73244.8,-2.51,-3.03,-2.99,0,*53
1514113209.11,34304,9.25,73244.8,-2.51,-2.99,-2.99,0,*56
1514113210.32,34305,9.25,73228.0,-2.51,-2.99,-3.03,0,*55
1514113211.54,34306,9.25,73236.8,-2.51,-3.03,-3.03,0,*54
1514113212.74,34307,9.25,73244.3,-2.49,-2.99,-3.03,0,*5E
1514113213.95,34308,9.25,73254.0,-2.51,-3.03,-3.03,0,*5A
1514113215.18,34309,9.25,73246.3,-2.51,-3.03,-2.99,0,*59
1514113216.37,34310,9.25,73252.5,-2.49,-3.03,-3.03,0,*5A
1514113217.59,34311,9.25,73224.8,-2.51,-3.03,-2.99,0,*50
1514113218.81,34312,9.25,73232.8,-2.51,-3.03,-3.03,0,*51
1514113220.0,34313,9.25,73268.5,-2.49,-3.03,-3.03,0,*59
1514113221.2,34314,9.19,73294.0,-2.49,-3.03,-2.99,0,*5C
1514113222.41,34315,9.25,73288.3,-2.51,-3.03,-3.11,0,*55
1514113223.63,34316,9.25,73260.3,-2.51,-3.03,-3.11,0,*56
1514113224.82,34317,9.25,73274.0,-2.49,-3.03,-3.11,0,*5E
1514113226.01,34318,9.25,73270.0,-2.49,-3.03,-3.03,0,*52
1514113227.23,34319,9.25,73268.5,-2.51,-2.99,-3.03,0,*58
1514113228.45,34320,9.25,73264.5,-2.51,-3.03,-3.03,0,*50
1514113229.67,34321,9.25,73278.0,-2.51,-3.03,-3.03,0,*51
1514113230.89,34322,9.25,73268.0,-2.51,-3.11,-3.03,0,*51
1514113232.11,34323,9.25,73268.8,-2.51,-3.11,-3.03,0,*50
1514113233.33,34324,9.25,73270.3,-2.51,-3.15,-2.99,0,*51
1514113234.55,34325,9.25,73270.0,-2.51,-3.03,-3.03,0,*55
1514113235.77,34326,9.25,73262.5,-2.51,-3.03,-2.99,0,*54
1514113236.99,34327,9.25,73250.8,-2.51,-3.03,-3.03,0,*57
1514113238.21,34328,9.25,73238.5,-2.51,-2.99,-3.03,0,*5A
1514113239.43,34329,9.19,73246.8,-2.51,-2.99,-2.99,0,*59
1514113240.66,34330,9.25,73252.8,-2.51,-3.03,-2.99,0,*53
1514113241.88,34331,9.25,73274.5,-2.51,-2.99,-2.99,0,*50
1514113243.1,34332,9.25,73256.8,-2.51,-3.03,-2.99,0,*51
1514113244.32,34333,9.25,73250.5,-2.51,-3.03,-3.03,0,*52
1514113245.54,34334,9.25,73240.3,-2.51,-3.03,-2.99,0,*57
1514113246.76,34335,9.25,73238.8,-2.51,-2.99,-3.03,0,*56
1514113247.98,34336,9.25,73252.8,-2.51,-3.03,-3.03,0,*57
1514113249.17,34337,9.25,73248.3,-2.53,-3.03,-3.03,0,*54
1514113250.36,34338,9.25,73246.8,-2.49,-3.03,-3.03,0,*50
1514113251.56,34339,9.25,73270.5,-2.49,-3.03,-2.99,0,*53
1514113252.78,34340,9.25,73266.8,-2.51,-3.03,-2.99,0,*54
1514113254.0,34341,9.25,73256.8,-2.51,-3.03,-2.99,0,*55
1514113255.22,34342,9.25,73256.3,-2.51,-3.03,-3.03,0,*54
1514113256.44,34343,9.25,73250.5,-2.51,-3.03,-3.03,0,*55
1514113257.66,34344,9.25,73250.0,-2.51,-2.99,-3.03,0,*50
1514113258.88,34345,9.25,73240.0,-2.51,-2.99,-2.99,0,*53
1514113260.1,34346,9.25,73238.3,-2.51,-3.03,-2.99,0,*52
1514113261.32,34347,9.25,73224.3,-2.51,-3.03,-3.03,0,*51
1514113262.54,34348,9.25,73238.3,-2.51,-3.03,-2.99,0,*5C
1514113263.76,34349,9.25,73252.8,-2.51,-3.03,-3.03,0,*5F
1514113264.98,34350,9.25,73250.3,-2.51,-3.03,-2.99,0,*55
1514113266.21,34351,9.25,73244.5,-2.51,-3.11,-2.99,0,*57
1514113267.43,34352,9.25,73256.5,-2.51,-2.99,-2.99,0,*55
1514113268.65,34353,9.25,73262.8,-2.51,-2.99,-3.03,0,*56
1514113269.84,34354,9.25,73258.3,-2.49,-2.99,-2.99,0,*5A
1514113271.04,34355,9.25,73260.5,-2.49,-3.03,-2.99,0,*59
1514113272.23,34356,9.25,73266.0,-2.49,-3.03,-3.03,0,*58
1514113273.42,34357,9.25,73272.0,-2.49,-3.03,-3.11,0,*5A
1514113274.64,34358,9.25,73268.3,-2.51,-3.03,-2.99,0,*5D
1514113275.86,34359,9.25,73266.5,-2.51,-3.03,-2.99,0,*5C
1514113277.08,34360,9.25,73260.5,-2.51,-3.03,-3.03,0,*54
1514113278.3,34361,9.25,73248.0,-2.51,-3.03,-2.99,0,*57
1514113279.52,34362,9.25,73222.8,-2.51,-2.99,-3.03,0,*54
1514113280.74,34363,9.25,73198.8,-2.51,-3.03,-3.03,0,*57
1514113281.96,34364,9.25,73216.3,-2.51,-3.03,-2.99,0,*52
1514113283.18,34365,9.25,73182.5,-2.51,-3.03,-2.99,0,*53
1514113284.4,34366,9.25,73234.5,-2.51,-2.99,-3.03,0,*50
1514113285.62,34367,9.25,73248.8,-2.51,-3.11,-3.03,0,*50
1514113286.84,34368,9.25,73252.8,-2.51,-3.03,-3.03,0,*5C
1514113288.06,34369,9.25,73278.5,-2.51,-3.03,-3.03,0,*5D
1514113289.28,34370,9.25,73284.3,-2.51,-3.03,-2.99,0,*57
1514113290.47,34371,9.25,73278.8,-2.49,-3.03,-3.03,0,*5D
1514113291.69,34372,9.25,73276.3,-2.51,-3.03,-2.99,0,*55
1514113292.89,34373,9.25,73272.5,-2.49,-3.11,-3.03,0,*5C
1514113294.11,34374,9.25,73272.5,-2.51,-3.03,-3.03,0,*51
1514113295.33,34375,9.25,73274.0,-2.51,-3.11,-3.03,0,*53
1514113296.52,34376,9.25,73276.5,-2.49,-3.03,-2.99,0,*58
1514113297.74,34377,9.25,73272.0,-2.51,-3.03,-3.03,0,*52
1514113298.93,34378,9.25,73268.0,-2.49,-2.99,-3.03,0,*56
1514113300.15,34379,9.25,73258.0,-2.51,-3.03,-3.03,0,*5C
1514113301.37,34380,9.25,73262.3,-2.51,-3.03,-3.03,0,*5A
1514113302.59,34381,9.25,73274.8,-2.51,-2.99,-3.03,0,*59
1514113303.81,34382,9.25,73278.3,-2.51,-3.03,-3.03,0,*58
1514113305.03,34383,9.25,73286.8,-2.51,-3.03,-2.99,0,*5B
1514113306.25,34384,9.25,73292.8,-2.51,-3.11,-2.99,0,*5F
1514113307.47,34385,9.25,73286.0,-2.51,-3.03,-2.99,0,*5D
1514113308.69,34386,9.25,73278.0,-2.51,-3.03,-2.99,0,*5E
1514113309.92,34387,9.25,73274.8,-2.51,-3.03,-2.99,0,*5F
1514113311.14,34388,9.25,73268.0,-2.51,-3.03,-2.99,0,*50
1514113312.36,34389,9.25,73272.8,-2.51,-3.03,-3.03,0,*53
1514113313.58,34390,9.25,73262.3,-2.51,-3.03,-2.99,0,*59
1514113314.8,34391,9.25,73256.3,-2.51,-3.03,-3.03,0,*5A
1514113316.01,34392,9.25,73256.5,-2.51,-3.03,-3.03,0,*59
1514113317.21,34393,9.25,73256.5,-2.49,-3.03,-3.03,0,*51
1514113318.43,34394,9.25,73266.5,-2.51,-3.03,-2.99,0,*5D
1514113319.62,34395,9.25,73272.0,-2.49,-3.03,-2.99,0,*55
1514113320.85,34396,9.25,73264.8,-2.51,-3.03,-2.99,0,*5F
1514113322.07,34397,9.25,73268.3,-2.51,-3.03,-2.99,0,*5E
1514113323.29,34398,9.25,73276.5,-2.51,-3.03,-2.99,0,*51
1514113324.51,34399,9.25,73274.0,-2.51,-3.03,-3.03,0,*52
1514113325.73,34400,9.25,73260.5,-2.51,-3.03,-2.99,0,*57
1514113326.95,34401,9.19,73266.0,-2.51,-2.99,-3.03,0,*56
1514113328.17,34402,9.25,73272.3,-2.51,-2.99,-3.03,0,*55
1514113329.39,34403,9.25,73270.8,-2.51,-3.03,-2.99,0,*54
1514113330.61,34404,9.25,73278.3,-2.51,-3.03,-3.03,0,*51
1514113331.83,34405,9.25,73294.5,-2.51,-3.11,-3.03,0,*53
1514113333.05,34406,9.25,73278.8,-2.51,-3.11,-3.03,0,*50
1514113334.27,34407,9.25,73308.0,-2.51,-3.11,-2.99,0,*53
1514113335.49,34408,9.25,73294.0,-2.51,-3.11,-3.03,0,*5E
1514113336.71,34409,9.25,73284.3,-2.51,-3.11,-3.03,0,*5F
1514113337.93,34410,9.25,73288.3,-2.51,-3.11,-2.99,0,*55
1514113339.15,34411,9.25,73292.3,-2.51,-3.11,-2.99,0,*54
1514113340.37,34412,9.25,73316.5,-2.51,-3.03,-2.99,0,*54
1514113341.57,34413,9.25,73324.5,-2.49,-3.03,-3.11,0,*5D
1514113342.79,34414,9.25,73304.3,-2.51,-3.03,-3.03,0,*50
1514113344.0,34415,9.25,73302.3,-2.51,-3.03,-3.03,0,*51
1514113345.22,34416,9.25,73304.8,-2.51,-3.11,-3.03,0,*51
1514113346.41,34417,9.25,73300.5,-2.49,-3.03,-3.03,0,*5A
1514113347.63,34418,9.25,73264.5,-2.51,-3.11,-3.03,0,*5F
1514113348.85,34419,9.25,73270.0,-2.51,-3.03,-3.03,0,*5D
1514113350.05,34420,9.25,73270.5,-2.49,-3.03,-2.99,0,*5C
1514113351.27,34421,9.25,73270.8,-2.51,-3.11,-3.11,0,*56
1514113352.46,34422,9.25,73270.0,-2.49,-3.11,-2.99,0,*5D
1514113353.68,34423,9.25,73290.5,-2.51,-3.11,-3.03,0,*57
1514113354.9,34424,9.25,73282.5,-2.51,-3.11,-3.03,0,*50
1514113356.12,34425,9.25,73280.8,-2.51,-3.11,-2.99,0,*53
1514113357.34,34426,9.25,73272.5,-2.51,-3.11,-3.03,0,*52
1514113358.54,34427,9.25,73270.0,-2.49,-3.11,-3.03,0,*5A
1514113359.75,34428,9.25,73282.0,-2.51,-3.03,-3.03,0,*5F
1514113360.97,34429,9.25,73288.3,-2.51,-3.03,-3.03,0,*5E
1514113362.19,34430,9.25,73282.0,-2.51,-3.03,-3.03,0,*56
1514113363.41,34431,9.25,73284.5,-2.51,-3.03,-2.99,0,*55
1514113364.63,34432,9.25,73288.8,-2.51,-3.03,-3.03,0,*54
1514113365.85,34433,9.25,73282.0,-2.51,-3.03,-2.99,0,*57
1514113367.07,34434,9.25,73248.0,-2.51,-2.99,-3.03,0,*50
1514113368.29,34435,9.25,73264.5,-2.51,-3.03,-2.99,0,*51
1514113369.49,34436,9.25,73272.3,-2.49,-3.11,-2.99,0,*58
1514113370.71,34437,9.25,73284.8,-2.51,-3.03,-3.03,0,*51
1514113371.9,34438,9.25,73288.5,-2.49,-2.99,-2.99,0,*57
1514113373.1,34439,9.25,73286.3,-2.49,-3.03,-2.99,0,*54
1514113374.29,34440,9.25,73288.3,-2.49,-3.03,-2.99,0,*5A
1514113375.51,34441,9.25,73278.0,-2.51,-3.03,-3.03,0,*50
1514113376.7,34442,9.25,73256.3,-2.49,-3.11,-3.03,0,*59
1514113377.9,34443,9.25,73238.5,-2.49,-3.03,-2.99,0,*59
1514113379.12,34444,9.25,73208.3,-2.51,-2.99,-2.99,0,*55
1514113380.31,34445,9.25,73182.8,-2.49,-3.03,-3.03,0,*5D
1514113381.53,34446,9.25,73170.8,-2.51,-2.99,-2.99,0,*57
1514113382.75,34447,9.25,73134.0,-2.51,-2.99,-3.03,0,*54
1514113383.97,34448,9.25,73120.0,-2.51,-2.99,-3.03,0,*5B
1514113385.19,34449,9.25,73138.5,-2.51,-3.03,-2.99,0,*5A
1514113386.39,34450,9.25,73186.8,-2.49,-3.03,-3.03,0,*59
1514113387.6,34451,9.25,73236.8,-2.51,-2.99,-3.03,0,*53
1514113388.82,34452,9.25,73246.5,-2.51,-3.03,-3.03,0,*52
1514113390.05,34453,9.25,73250.5,-2.51,-3.03,-2.99,0,*51
1514113391.24,34454,9.25,73262.8,-2.49,-3.03,-3.03,0,*5D
1514113392.43,34455,9.25,73266.0,-2.49,-3.03,-2.99,0,*5E
1514113393.65,34456,9.25,73278.5,-2.51,-3.03,-2.99,0,*54
1514113394.85,34457,9.25,73268.8,-2.49,-3.03,-3.03,0,*5E
1514113396.04,34458,9.25,73260.3,-2.49,-3.03,-3.03,0,*51
1514113397.23,34459,9.25,73260.0,-2.49,-3.03,-3.03,0,*50
1514113398.42,34460,9.25,73262.0,-2.49,-3.03,-3.03,0,*5A
1514113399.64,34461,9.25,73254.5,-2.51,-3.03,-3.03,0,*52
1514113400.84,34462,9.25,73266.0,-2.49,-3.03,-2.99,0,*5A
1514113402.05,34463,9.25,73270.3,-2.51,-3.03,-3.03,0,*50
1514113403.25,34464,9.25,73256.3,-2.49,-3.11,-2.99,0,*5F
1514113404.47,34465,9.25,73268.5,-2.51,-3.11,-3.03,0,*55
1514113405.69,34466,9.25,73276.0,-2.51,-3.03,-3.03,0,*55
1514113406.91,34467,9.25,73276.3,-2.51,-3.03,-3.03,0,*54
1514113408.1,34468,9.25,73286.8,-2.49,-3.03,-3.03,0,*52
1514113409.32,34469,9.25,73296.3,-2.51,-3.03,-3.03,0,*5A
1514113410.54,34470,9.25,73314.0,-2.51,-3.15,-3.03,0,*55
1514113411.76,34471,9.25,73298.0,-2.51,-3.11,-2.99,0,*52
1514113412.95,34472,9.25,73290.0,-2.49,-3.11,-3.11,0,*59
1514113414.17,34473,9.25,73262.8,-2.51,-3.03,-3.03,0,*51
1514113415.39,34474,9.25,73244.8,-2.51,-3.03,-3.03,0,*56
1514113416.59,34475,9.25,73248.5,-2.49,-3.03,-2.99,0,*5C
1514113417.78,34476,9.25,73234.8,-2.49,-2.99,-3.03,0,*5F
1514113419.0,34477,9.25,73248.0,-2.51,-2.99,-2.99,0,*55
1514113420.22,34478,9.25,73272.8,-2.51,-2.99,-3.03,0,*58
1514113421.41,34479,9.25,73292.0,-2.49,-3.03,-2.99,0,*50
1514113422.63,34480,9.25,73294.8,-2.51,-3.11,-3.03,0,*5E
1514113423.85,34481,9.25,73306.3,-2.51,-3.03,-2.99,0,*5E
1514113425.05,34482,9.25,73318.5,-2.49,-3.03,-2.99,0,*54
1514113426.24,34483,9.25,73308.0,-2.49,-3.03,-3.03,0,*57
1514113427.44,34484,9.25,73306.0,-2.49,-2.99,-2.99,0,*50
1514113428.63,34485,9.25,73252.8,-2.49,-3.03,-2.99,0,*53
1514113429.83,34486,9.25,73218.5,-2.49,-2.99,-2.99,0,*52
1514113431.04,34487,9.25,73226.0,-2.51,-2.91,-2.99,0,*52
1514113432.24,34488,9.25,73244.8,-2.49,-3.03,-2.99,0,*5E
1514113433.46,34489,9.25,73258.0,-2.51,-3.03,-2.99,0,*56
1514113434.68,34490,9.25,73274.3,-2.51,-2.99,-2.91,0,*54
1514113435.87,34491,9.25,73270.8,-2.49,-2.99,-2.99,0,*54
1514113437.07,34492,9.25,73266.5,-2.49,-3.03,-2.99,0,*55
1514113438.29,34493,9.25,73268.3,-2.51,-3.03,-2.99,0,*5D
1514113439.48,34494,9.25,73248.8,-2.49,-2.99,-2.91,0,*59
1514113440.66,34495,9.25,73242.5,-2.49,-2.99,-2.91,0,*58
1514113441.86,34496,9.25,73250.8,-2.49,-2.99,-3.03,0,*51
1514113443.05,34497,9.25,73256.5,-2.49,-2.99,-2.99,0,*52
1514113444.27,34498,9.25,73240.5,-2.51,-3.03,-2.99,0,*56
1514113445.47,34499,9.25,73246.5,-2.49,-3.03,-2.99,0,*5E
1514113446.66,34500,9.25,73232.8,-2.49,-3.03,-2.99,0,*5F
1514113447.86,34501,9.25,73280.0,-2.49,-3.03,-3.03,0,*5C
1514113449.05,34502,9.25,73270.5,-2.49,-3.03,-2.99,0,*5D
1514113450.27,34503,9.25,73244.0,-2.51,-3.03,-2.99,0,*55
1514113451.49,34504,9.25,73242.5,-2.51,-2.99,-3.03,0,*52
1514113452.69,34505,9.25,73208.5,-2.49,-3.03,-2.99,0,*5A
1514113453.88,34506,9.25,73198.8,-2.49,-3.03,-3.03,0,*5B
1514113455.07,34507,9.25,73218.8,-2.49,-2.99,-3.03,0,*58
1514113456.26,34508,9.25,73252.3,-2.49,-2.99,-2.99,0,*55
1514113457.46,34509,9.25,73238.8,-2.49,-2.99,-2.99,0,*54
1514113458.65,34510,9.25,73254.8,-2.49,-3.03,-3.03,0,*5C
1514113459.87,34511,9.25,73268.8,-2.51,-3.03,-3.03,0,*54
1514113461.06,34512,9.25,73276.5,-2.49,-3.03,-3.03,0,*5E
1514113462.28,34513,9.25,73290.5,-2.51,-2.99,-3.03,0,*54
1514113463.48,34514,9.25,73318.3,-2.49,-3.03,-2.99,0,*5A
1514113464.67,34515,9.25,73312.3,-2.49,-3.03,-2.99,0,*5B
1514113465.88,34516,9.25,73314.5,-2.45,-2.95,-2.95,0,*56
1514113467.07,34517,9.25,73306.3,-2.45,-2.99,-2.99,0,*57
1514113468.27,34518,9.25,73298.0,-2.49,-2.99,-3.03,0,*56
1514113469.46,34519,9.25,73300.3,-2.49,-3.03,-2.99,0,*57
1514113470.65,34520,9.25,73284.8,-2.49,-3.11,-3.03,0,*5C
1514113471.85,34521,9.25,73282.5,-2.49,-3.11,-3.03,0,*5D
1514113473.04,34522,9.25,73292.0,-2.49,-3.11,-3.03,0,*5E
1514113474.26,34523,9.25,73280.3,-2.51,-3.03,-3.03,0,*55
1514113475.45,34524,9.25,73262.8,-2.49,-3.03,-3.03,0,*5B
1514113476.67,34525,9.25,73250.5,-2.51,-3.03,-3.03,0,*53
1514113477.86,34526,9.25,73246.8,-2.49,-3.03,-2.99,0,*5B
1514113479.08,34527,9.25,73218.5,-2.51,-3.03,-3.03,0,*51
1514113480.28,34528,9.25,73164.8,-2.49,-3.11,-3.03,0,*54
1514113481.47,34529,9.19,73122.8,-2.49,-3.11,-3.03,0,*55
1514113482.66,34530,9.25,73124.5,-2.49,-3.11,-3.03,0,*5D
1514113483.85,34531,9.25,73166.3,-2.49,-3.03,-3.03,0,*5F
1514113485.05,34532,9.25,73168.3,-2.49,-2.99,-2.99,0,*5C
1514113486.24,34533,9.25,73172.5,-2.49,-2.99,-3.03,0,*5F
1514113487.44,34534,9.25,73178.3,-2.49,-2.99,-2.99,0,*5A
1514113488.63,34535,9.25,73182.0,-2.49,-2.99,-2.99,0,*5B
1514113489.83,34536,9.25,73196.0,-2.49,-2.99,-2.99,0,*58
1514113491.02,34537,9.25,73214.5,-2.49,-3.03,-3.03,0,*59
1514113492.21,34538,9.25,73228.5,-2.49,-2.99,-2.99,0,*56
1514113493.41,34539,9.25,73240.8,-2.49,-3.03,-2.99,0,*55
1514113494.6,34540,9.25,73260.0,-2.49,-3.03,-3.03,0,*59
1514113495.82,34541,9.25,73282.0,-2.51,-2.99,-3.03,0,*53
1514113497.01,34542,9.25,73280.8,-2.49,-3.03,-2.99,0,*59
1514113498.21,34543,9.25,73262.0,-2.49,-3.03,-3.03,0,*5A
1514113499.4,34544,9.25,73274.0,-2.49,-2.99,-2.99,0,*5D
1514113500.59,34545,9.25,73256.0,-2.49,-3.03,-2.87,0,*51
1514113501.8,34546,9.25,73210.3,-2.45,-2.95,-2.95,0,*53
1514113503.0,34547,9.25,73200.0,-2.45,-2.95,-2.95,0,*52
1514113504.21,34548,9.25,73212.8,-2.45,-2.95,-2.95,0,*5D
1514113505.39,34549,9.25,73218.0,-2.49,-2.99,-2.91,0,*58
1514113506.59,34550,9.25,73224.5,-2.49,-2.99,-2.99,0,*58
1514113507.78,34551,9.25,73248.8,-2.49,-2.99,-2.91,0,*51
1514113508.97,34552,9.25,73286.0,-2.45,-2.99,-2.87,0,*59
1514113510.18,34553,9.25,73288.3,-2.45,-2.95,-2.95,0,*57
1514113511.38,34554,9.25,73306.3,-2.45,-2.95,-2.99,0,*5C
1514113512.58,34555,9.25,73310.5,-2.49,-2.95,-2.99,0,*51
1514113513.79,34556,9.25,73298.5,-2.43,-2.95,-2.95,0,*54
1514113514.99,34557,9.25,73306.3,-2.45,-2.99,-2.87,0,*5C
1514113516.19,34558,9.25,73306.3,-2.45,-2.95,-2.87,0,*5F
1514113517.38,34559,9.25,73312.8,-2.45,-2.99,-2.87,0,*52
1514113518.59,34560,9.25,73298.5,-2.45,-2.95,-2.99,0,*5B
1514113519.79,34561,9.25,73274.3,-2.45,-2.95,-2.99,0,*5A
1514113521.0,34562,9.25,73262.3,-2.45,-2.95,-2.95,0,*55
1514113522.2,34563,9.25,73250.8,-2.45,-2.95,-2.95,0,*54
1514113523.41,34564,9.25,73248.3,-2.45,-2.95,-2.95,0,*53
1514113524.6,34565,9.25,73246.5,-2.45,-2.99,-2.99,0,*52
1514113525.81,34566,9.25,73244.0,-2.45,-2.95,-2.95,0,*51
1514113527.01,34567,9.25,73262.0,-2.45,-2.99,-2.95,0,*5C
1514113528.21,34568,9.25,73270.8,-2.45,-2.95,-2.95,0,*5F
1514113529.42,34569,9.25,73272.8,-2.45,-2.95,-2.95,0,*5E
1514113530.62,34570,9.25,73272.5,-2.45,-2.95,-2.95,0,*56
1514113531.82,34571,9.25,73278.5,-2.45,-2.95,-2.87,0,*54
1514113533.03,34572,9.25,73282.5,-2.45,-2.95,-2.95,0,*54
1514113534.23,34573,9.25,73278.8,-2.45,-2.95,-2.87,0,*56
1514113535.44,34574,9.25,73272.3,-2.45,-2.95,-2.95,0,*52
1514113536.63,34575,9.25,73266.8,-2.43,-2.87,-2.87,0,*55
1514113537.84,34576,9.25,73256.8,-2.45,-2.95,-2.95,0,*50
1514113539.04,34577,9.25,73264.3,-2.45,-2.95,-2.87,0,*52
1514113540.24,34578,9.25,73264.5,-2.45,-2.95,-2.87,0,*5D
1514113541.43,34579,9.25,73238.8,-2.45,-2.87,-2.87,0,*5F
1514113542.63,34580,9.25,73232.0,-2.45,-2.87,-2.87,0,*59
1514113543.83,34581,9.25,73274.3,-2.45,-2.87,-2.95,0,*5B
1514113545.03,34582,9.25,73298.8,-2.45,-2.95,-2.95,0,*5B
1514113546.24,34583,9.25,73282.3,-2.43,-2.95,-2.95,0,*5C
1514113547.44,34584,9.25,73248.5,-2.45,-2.95,-2.95,0,*5D
1514113548.65,34585,9.25,73238.5,-2.45,-2.95,-2.87,0,*5F
1514113549.85,34586,9.25,73200.8,-2.43,-2.95,-2.87,0,*5A
1514113551.06,34587,9.25,73182.0,-2.43,-2.95,-2.95,0,*58
1514113552.26,34588,9.25,73210.3,-2.45,-2.95,-2.95,0,*51
1514113553.47,34589,9.25,73234.8,-2.43,-2.95,-2.95,0,*56
1514113554.67,34590,9.25,73252.5,-2.45,-2.95,-2.87,0,*5B
1514113555.87,34591,9.25,73256.8,-2.45,-2.95,-2.87,0,*5A
1514113557.08,34592,9.25,73248.5,-2.43,-2.99,-2.99,0,*5C
1514113558.28,34593,9.25,73238.8,-2.43,-2.95,-2.87,0,*5E
1514113559.49,34594,9.25,73228.0,-2.43,-2.95,-2.87,0,*59
1514113560.69,34595,9.25,73226.8,-2.43,-2.99,-2.99,0,*5B
1514113561.9,34596,9.25,73272.8,-2.45,-2.95,-2.95,0,*5E
1514113563.1,34597,9.25,73288.0,-2.45,-2.95,-2.99,0,*53
1514113564.31,34598,9.25,73272.0,-2.43,-2.95,-2.95,0,*56
1514113565.51,34599,9.25,73276.0,-2.45,-2.95,-2.95,0,*51
1514113566.72,34600,9.25,73296.0,-2.43,-2.95,-2.87,0,*57
1514113567.92,34601,9.25,73302.5,-2.43,-2.99,-2.95,0,*59
1514113569.13,34602,9.25,73296.3,-2.45,-2.95,-2.95,0,*50
1514113570.33,34603,9.25,73298.8,-2.43,-2.95,-2.87,0,*54
1514113571.53,34604,9.25,73324.8,-2.45,-2.99,-2.95,0,*5A
1514113572.73,34605,9.25,73286.0,-2.43,-2.99,-2.99,0,*51
1514113573.93,34606,9.25,73254.8,-2.45,-2.99,-2.95,0,*58
1514113575.13,34607,9.25,73274.5,-2.45,-2.99,-2.95,0,*59
1514113576.33,34608,9.25,73300.3,-2.43,-2.99,-2.95,0,*50
1514113577.54,34609,9.25,73272.5,-2.43,-2.99,-2.95,0,*51
1514113578.74,34610,9.25,73272.8,-2.45,-2.95,-2.99,0,*5F
1514113579.94,34611,9.25,73290.8,-2.45,-2.99,-2.99,0,*52
1514113581.14,34612,9.25,73318.5,-2.45,-2.99,-2.99,0,*51
1514113582.35,34613,9.25,73312.0,-2.43,-2.95,-2.95,0,*56
1514113583.55,34614,9.25,73330.0,-2.45,-2.95,-2.87,0,*54
1514113584.75,34615,9.25,73306.5,-2.45,-2.95,-2.99,0,*5A
1514113585.95,34616,9.25,73294.3,-2.45,-2.99,-2.95,0,*59
1514113587.15,34617,9.25,73306.8,-2.45,-3.07,-2.95,0,*5E
1514113588.35,34618,9.25,73290.0,-2.45,-2.99,-2.95,0,*57
1514113589.55,34619,9.25,73282.3,-2.45,-2.99,-2.99,0,*5A
1514113590.75,34620,9.25,73264.8,-2.43,-2.87,-2.95,0,*55
1514113591.95,34621,9.25,73252.8,-2.43,-2.99,-2.95,0,*5B
1514113593.15,34622,9.25,73260.8,-2.43,-2.99,-2.99,0,*54
1514113594.36,34623,9.25,73262.0,-2.43,-2.99,-2.99,0,*55
1514113595.56,34624,9.25,73260.3,-2.43,-2.99,-2.99,0,*52
1514113596.77,34625,9.25,73260.0,-2.43,-2.95,-2.95,0,*53
1514113597.97,34626,9.25,73288.5,-2.43,-2.99,-2.95,0,*5C
1514113599.18,34627,9.25,73284.3,-2.43,-2.95,-2.99,0,*5D
1514113600.39,34628,9.25,73296.3,-2.43,-2.95,-2.95,0,*5E
1514113601.6,34629,9.25,73298.5,-2.43,-2.95,-2.99,0,*53
1514113602.8,34630,9.25,73302.0,-2.45,-2.99,-2.95,0,*5D
1514113604.0,34631,9.25,73304.3,-2.45,-2.99,-2.95,0,*5C
1514113605.2,34632,9.25,73300.0,-2.45,-2.95,-2.95,0,*53
1514113606.4,34633,9.25,73286.5,-2.45,-2.99,-2.99,0,*52
1514113607.6,34634,9.25,73278.0,-2.45,-2.99,-2.99,0,*55
1514113608.81,34635,9.25,73274.0,-2.43,-2.95,-2.95,0,*52
1514113610.01,34636,9.25,73190.8,-2.43,-2.95,-2.99,0,*5D
1514113611.22,34637,9.25,73172.3,-2.43,-2.95,-2.99,0,*5C
1514113612.43,34638,9.25,73168.3,-2.43,-2.95,-2.99,0,*53
1514113613.64,34639,9.25,73184.3,-2.43,-2.95,-2.95,0,*5E
1514113614.84,34640,9.25,73204.0,-2.45,-2.99,-2.99,0,*56
1514113616.04,34641,9.25,73234.5,-2.43,-2.99,-2.99,0,*51
1514113617.24,34642,9.25,73284.0,-2.45,-2.99,-2.99,0,*54
1514113618.44,34643,9.25,73292.8,-2.45,-2.99,-2.95,0,*59
1514113619.65,34644,9.25,73292.3,-2.43,-2.95,-2.99,0,*58
1514113620.86,34645,9.25,73288.3,-2.43,-2.95,-2.95,0,*55
1514113622.07,34646,9.25,73290.3,-2.43,-2.95,-2.95,0,*56
1514113623.27,34647,9.25,73286.3,-2.43,-2.95,-2.95,0,*57
1514113624.47,34648,9.25,73280.8,-2.45,-2.99,-2.95,0,*52
1514113625.68,34649,9.25,73292.8,-2.43,-2.99,-2.99,0,*59
1514113626.88,34650,9.25,73306.3,-2.45,-2.95,-2.95,0,*57
1514113628.08,34651,9.25,73272.8,-2.43,-2.99,-2.99,0,*50
1514113629.29,34652,9.25,73252.3,-2.43,-2.95,-2.99,0,*5F
1514113630.5,34653,9.25,73248.8,-2.43,-2.95,-2.95,0,*52
1514113631.71,34654,9.25,73240.0,-2.43,-2.95,-2.95,0,*55
1514113632.92,34655,9.25,73254.3,-2.43,-2.95,-2.95,0,*54
1514113634.13,34656,9.25,73250.3,-2.43,-2.95,-2.95,0,*57
1514113635.33,34657,9.25,73256.3,-2.45,-2.95,-2.95,0,*50
1514113636.54,34658,9.25,73266.3,-2.45,-2.95,-2.95,0,*5F
1514113637.75,34659,9.25,73272.3,-2.43,-2.95,-2.95,0,*58
1514113638.96,34660,9.25,73276.5,-2.43,-2.95,-2.99,0,*5E
1514113640.16,34661,9.25,73286.5,-2.45,-2.99,-2.95,0,*59
1514113641.35,34662,9.25,73294.0,-2.45,-2.99,-2.99,0,*56
1514113642.56,34663,9.25,73298.0,-2.43,-2.99,-2.99,0,*51
1514113643.77,34664,9.25,73298.8,-2.43,-2.95,-2.99,0,*5A
1514113644.96,34665,9.25,73292.3,-2.45,-2.99,-2.95,0,*5D
1514113646.17,34666,9.25,73288.8,-2.43,-2.99,-2.95,0,*58
1514113647.37,34667,9.25,73290.5,-2.43,-2.99,-2.99,0,*55
1514113648.57,34668,9.25,73292.0,-2.45,-2.99,-2.99,0,*5C
1514113649.77,34669,9.25,73294.5,-2.43,-2.99,-2.99,0,*5B
1514113650.97,34670,9.25,73296.5,-2.45,-2.99,-2.99,0,*55
1514113652.18,34671,9.25,73292.0,-2.43,-2.95,-2.95,0,*52
1514113653.38,34672,9.25,73288.5,-2.43,-2.99,-2.95,0,*5D
1514113654.59,34673,9.25,73282.5,-2.43,-2.95,-2.99,0,*5C
1514113655.79,34674,9.25,73280.5,-2.43,-2.99,-2.95,0,*5B
1514113656.99,34675,9.25,73274.5,-2.43,-2.99,-2.99,0,*56
1514113658.2,34676,9.25,73276.3,-2.43,-2.99,-2.95,0,*59
1514113659.41,34677,9.25,73280.8,-2.43,-2.95,-2.95,0,*54
1514113660.61,34678,9.25,73282.0,-2.43,-2.99,-2.95,0,*57
1514113661.81,34679,9.25,73276.8,-2.45,-2.99,-2.95,0,*50
1514113663.02,34680,9.25,73284.8,-2.43,-2.95,-2.99,0,*50
1514113664.22,34681,9.25,73272.3,-2.43,-2.99,-2.95,0,*51
1514113665.43,34682,9.25,73270.3,-2.45,-2.95,-2.95,0,*58
1514113666.64,34683,9.25,73282.8,-2.43,-2.95,-2.99,0,*53
1514113667.84,34684,9.25,73286.0,-2.45,-2.95,-2.99,0,*52
1514113669.04,34685,9.25,73274.0,-2.43,-2.99,-2.95,0,*55
1514113670.25,34686,9.25,73270.5,-2.43,-2.99,-2.95,0,*56
1514113671.45,34687,9.25,73266.3,-2.45,-2.99,-2.95,0,*51
1514113672.65,34688,9.25,73284.5,-2.45,-2.95,-2.99,0,*5E
1514113673.86,34689,9.25,73292.0,-2.43,-2.95,-2.95,0,*55
1514113675.06,34690,9.25,73290.5,-2.43,-2.99,-2.95,0,*51
1514113676.29,34691,9.25,73304.5,-2.41,-2.95,-2.91,0,*5A
1514113677.49,34692,9.25,73302.0,-2.43,-2.87,-2.99,0,*50
1514113678.7,34693,9.25,73306.0,-2.43,-2.95,-2.95,0,*5E
1514113679.91,34694,9.25,73296.8,-2.43,-2.95,-2.99,0,*55
1514113681.11,34695,9.25,73292.0,-2.43,-2.99,-2.95,0,*54
1514113682.31,34696,9.25,73290.3,-2.45,-2.99,-2.95,0,*51
1514113683.53,34697,9.25,73286.5,-2.41,-2.95,-2.91,0,*5C
1514113684.74,34698,9.25,73302.3,-2.43,-2.95,-2.87,0,*56
1514113685.95,34699,9.25,73318.0,-2.43,-2.95,-2.95,0,*54
1514113687.17,34700,9.25,73320.8,-2.41,-2.95,-2.83,0,*50
1514113688.38,34701,9.25,73320.8,-2.43,-2.95,-2.87,0,*57
1514113689.58,34702,9.25,73310.5,-2.43,-2.91,-2.95,0,*53
1514113690.79,34703,9.25,73308.5,-2.43,-2.95,-2.95,0,*56
1514113692.01,34704,9.25,73310.8,-2.41,-2.95,-2.91,0,*57
1514113693.22,34705,9.25,73342.8,-2.43,-2.95,-2.99,0,*5C
1514113694.43,34706,9.25,73302.3,-2.43,-2.95,-2.95,0,*53
1514113695.63,34707,9.25,73226.5,-2.43,-2.99,-2.95,0,*5E
1514113696.84,34708,9.25,73172.8,-2.43,-2.95,-2.95,0,*5D
1514113698.05,34709,9.25,73192.0,-2.43,-2.99,-2.95,0,*50
1514113699.26,34710,9.25,73230.5,-2.43,-2.95,-2.95,0,*54
1514113700.46,34711,9.25,73230.8,-2.43,-2.99,-2.99,0,*55
1514113701.66,34712,9.25,73254.5,-2.43,-2.95,-2.87,0,*55
1514113702.87,34713,9.25,73266.0,-2.45,-2.95,-2.95,0,*51
1514113704.08,34714,9.25,73264.5,-2.43,-2.95,-2.99,0,*5C
1514113705.28,34715,9.25,73250.3,-2.43,-2.99,-2.95,0,*5D
1514113706.48,34716,9.25,73190.5,-2.43,-2.99,-2.99,0,*52
1514113707.68,34717,9.25,73194.8,-2.45,-2.99,-2.95,0,*59